Cahokia, IL

10:54 AM CDT on July 23, 2017 (GMT -0500)
Saint Louis Downtown

Weather History for KCPS - January, 2014

Change the Weather History Date:

Thursday, January 9, 2014

  Actual Average Record
Temperature  
Mean Temperature 26 °F -  
Max Temperature 33 °F 42 °F 66 °F (1963)
Min Temperature 19 °F 19 °F -3 °F (1962)
Degree Days  
Heating Degree Days 39    
Moisture  
Dew Point 25 °F    
Average Humidity 91    
Maximum Humidity 96    
Minimum Humidity 74    
Precipitation  
Precipitation 0.07 in - - ()
Sea Level Pressure  
Sea Level Pressure 30.33 in    
Wind  
Wind Speed 4 mph (SE)    
Max Wind Speed 9 mph    
Max Gust Speed -    
Visibility 4 miles    
Events Snow    
Averages and records for this station are not official NWS values.
T = Trace of Precipitation, MM = Missing Value Source: NWS Daily Summary

Daily Weather History Graph

Daily Weather History Graph

Search for Another Location

Airport or City:

Trip Planner

Search our weather history database for the weather conditions in past years. The results will help you decide how hot, cold, wet, or windy it might be!

Date:

Astronomy

Jan. 09, 2014 Rise Set
Actual Time 7:18 AM CST 4:57 PM CST
Civil Twilight 6:48 AM CST 5:26 PM CST
Nautical Twilight 6:16 AM CST 5:59 PM CST
Astronomical Twilight 5:44 AM CST 6:31 PM CST
Moon 12:23 PM CST (1/9) 1:27 AM CST (1/9)
Length of Visible Light 10h 37m
Length of Day
9h 39m
Waxing Gibbous, 66% of the Moon is Illuminated
Jan 9
Waxing Gibbous
Jan 15
Full
Jan 23
Last Quarter
Jan 30
New
Feb 6
First Quarter

Hourly Weather History & Observations

Time (CST) Temp. Windchill Dew Point Humidity Pressure Visibility Wind Dir Wind Speed Gust Speed Precip Events Conditions
12:53 AM 21.0 °F 16.2 °F 14.0 °F 74% 30.45 in 6.0 mi East 3.5 mph - 0.00 in Snow Light Snow
1:53 AM 21.0 °F 16.2 °F 16.0 °F 81% 30.45 in 2.5 mi East 3.5 mph - 0.00 in Snow Light Snow
2:20 AM 19.4 °F 12.8 °F 17.6 °F 93% 30.44 in 1.2 mi ENE 4.6 mph - 0.00 in Snow Light Snow
2:53 AM 19.9 °F 13.4 °F 18.0 °F 92% 30.45 in 1.5 mi ENE 4.6 mph - 0.02 in Snow Light Snow
3:23 AM 21.2 °F 16.4 °F 19.4 °F 93% 30.42 in 2.0 mi ENE 3.5 mph - 0.00 in Snow Light Snow
3:42 AM 21.2 °F - 19.4 °F 93% 30.42 in 2.5 mi Calm Calm - 0.00 in Snow Light Snow
3:51 AM 21.2 °F - 19.4 °F 93% 30.42 in 1.8 mi Calm Calm - 0.00 in Snow Light Snow
3:53 AM 21.0 °F - 19.0 °F 92% 30.44 in 1.8 mi Calm Calm - 0.00 in Snow Light Snow
4:53 AM 21.0 °F 14.6 °F 19.0 °F 92% 30.42 in 2.0 mi East 4.6 mph - 0.04 in Snow Light Snow
5:13 AM 21.2 °F 14.9 °F 19.4 °F 93% 30.40 in 2.5 mi East 4.6 mph - 0.00 in Snow Light Snow
5:53 AM 21.9 °F 14.5 °F 19.9 °F 92% 30.40 in 3.0 mi SE 5.8 mph - 0.00 in   Overcast
6:36 AM 23.0 °F 15.8 °F 21.2 °F 93% 30.37 in 2.0 mi SE 5.8 mph - 0.01 in Snow Light Snow
6:53 AM 24.1 °F 17.0 °F 21.0 °F 88% 30.38 in 2.5 mi ESE 5.8 mph - 0.01 in Snow Light Snow
7:04 AM 24.8 °F 17.9 °F 21.2 °F 86% 30.36 in 3.0 mi East 5.8 mph - 0.00 in Snow Light Snow
7:12 AM 24.8 °F - 21.2 °F 86% 30.37 in 2.5 mi Calm Calm - 0.00 in Snow Light Snow
7:25 AM 24.8 °F 20.5 °F 23.0 °F 93% 30.36 in 3.0 mi East 3.5 mph - 0.00 in Snow Light Snow
7:44 AM 24.8 °F - 23.0 °F 93% 30.37 in 2.5 mi Calm Calm - 0.00 in Snow Light Snow
7:53 AM 25.0 °F - 23.0 °F 92% 30.38 in 1.8 mi Calm Calm - 0.00 in Snow Light Snow
8:42 AM 26.6 °F 22.6 °F 24.8 °F 93% 30.36 in 3.0 mi SE 3.5 mph - 0.00 in   Overcast
8:53 AM 26.1 °F 20.5 °F 24.1 °F 92% 30.37 in 2.5 mi SE 4.6 mph - 0.00 in   Overcast
9:13 AM 28.4 °F 21.2 °F 24.8 °F 86% 30.36 in 2.5 mi SE 6.9 mph - N/A   Overcast
9:53 AM 28.0 °F 22.8 °F 26.1 °F 92% 30.38 in 2.5 mi SSE 4.6 mph - N/A   Overcast
10:00 AM 28.4 °F 23.3 °F 26.6 °F 93% 30.36 in 6.0 mi SE 4.6 mph - N/A   Overcast
10:53 AM 30.0 °F 26.5 °F 28.0 °F 92% 30.35 in 7.0 mi SE 3.5 mph - N/A   Overcast
11:53 AM 30.9 °F 25.2 °F 28.0 °F 89% 30.30 in 10.0 mi SE 5.8 mph - N/A   Overcast
12:53 PM 33.1 °F 28.7 °F 28.0 °F 82% 30.27 in 10.0 mi SSE 4.6 mph - N/A   Overcast
1:53 PM 33.1 °F 27.7 °F 28.9 °F 85% 30.25 in 10.0 mi SSE 5.8 mph - N/A   Overcast
2:30 PM 33.8 °F 28.6 °F 30.2 °F 87% 30.23 in 10.0 mi SE 5.8 mph - N/A   Overcast
2:53 PM 33.1 °F 27.7 °F 30.0 °F 89% 30.25 in 10.0 mi SSE 5.8 mph - N/A   Overcast
3:53 PM 33.1 °F 27.7 °F 30.0 °F 89% 30.25 in 10.0 mi SE 5.8 mph - N/A   Overcast
5:34 PM 33.8 °F 28.6 °F 32.0 °F 93% 30.23 in 2.5 mi SE 5.8 mph - N/A   Overcast
5:53 PM 33.1 °F 27.7 °F 32.0 °F 96% 30.24 in 2.5 mi SE 5.8 mph - N/A   Overcast
6:53 PM 33.1 °F 27.7 °F 32.0 °F 96% 30.24 in 2.5 mi SSE 5.8 mph - N/A   Overcast
7:53 PM 33.1 °F 26.1 °F 32.0 °F 96% 30.22 in 1.5 mi SSE 8.1 mph - N/A   Overcast
8:53 PM 33.1 °F 27.7 °F 32.0 °F 96% 30.21 in 1.5 mi South 5.8 mph - N/A   Overcast
9:53 PM 33.1 °F 26.9 °F 30.9 °F 92% 30.20 in 1.5 mi SSE 6.9 mph - N/A   Overcast
10:00 PM 33.8 °F 26.4 °F 30.2 °F 87% 30.18 in 10.0 mi SSE 9.2 mph - N/A   Overcast
10:53 PM 33.1 °F 28.7 °F 32.0 °F 96% 30.19 in 10.0 mi SSE 4.6 mph - N/A   Overcast
11:53 PM 33.1 °F 28.7 °F 32.0 °F 96% 30.18 in 10.0 mi SSE 4.6 mph - N/A   Overcast